This demonstration page uses our WeatherBlox Daily Observations layout. Learn more.

41.55636, -103.73856

Hourly Observations for July 13, 2019

Temp ( °F °C ) Dew Point ( °F °C ) Humidity (%) Winds ( mph kmh ) Pressure ( in mb ) Visibility ( mi km ) Precip ( " mm )
12:53 am 00:53 Clear 64 18 N/A N/A E 8 13 29.94 1014 10 16.09344 0 0
1:53 am 01:53 Clear 63 17 N/A N/A NNE 7 11 29.94 1014 10 16.09344 0 0
2:53 am 02:53 Clear 61 16 N/A N/A Calm 29.91 1013 10 16.09344 0 0
3:53 am 03:53 Clear 61 16 N/A N/A E 5 7 29.94 1014 10 16.09344 0 0
4:53 am 04:53 Clear 61 16 N/A N/A Calm 29.94 1014 10 16.09344 0 0
5:53 am 05:53 Sunny 63 17 N/A N/A SE 3 6 29.94 1014 10 16.09344 0 0
6:53 am 06:53 Sunny 64 18 N/A N/A W 5 7 29.94 1014 10 16.09344 0 0
7:53 am 07:53 Sunny 68 20 N/A N/A Calm 29.97 1015 10 16.09344 0 0
8:53 am 08:53 Sunny 73 23 N/A N/A Calm 29.97 1015 10 16.09344 0 0
9:53 am 09:53 Sunny 79 26 N/A N/A VRB 5 7 29.94 1014 10 16.09344 0 0
10:53 am 10:53 Sunny 82 28 N/A N/A SSE 7 11 29.94 1014 10 16.09344 0 0
11:53 am 11:53 Sunny 84 29 N/A N/A S 6 9 29.94 1014 10 16.09344 0 0
12:53 pm 12:53 Sunny 86 30 N/A N/A S 6 9 29.94 1014 10 16.09344 0 0
1:53 pm 13:53 Sunny 90 32 N/A N/A ESE 7 11 29.91 1013 10 16.09344 0 0
2:53 pm 14:53 Sunny 90 32 N/A N/A SE 7 11 29.88 1012 10 16.09344 0 0
3:53 pm 15:53 Sunny 91 33 N/A N/A ESE 12 19 29.88 1012 10 16.09344 0 0
4:53 pm 16:53 Sunny 91 33 N/A N/A E 12 19 29.88 1012 10 16.09344 0 0
5:53 pm 17:53 Sunny 91 33 N/A N/A E 13 20 29.85 1011 10 16.09344 0 0
6:53 pm 18:53 Sunny 86 30 N/A N/A E 9 15 29.85 1011 10 16.09344 0 0
7:53 pm 19:53 Sunny 82 28 N/A N/A E 8 13 29.85 1011 10 16.09344 0 0
8:53 pm 20:53 Clear 79 26 N/A N/A ESE 5 7 29.88 1012 10 16.09344 0 0
9:53 pm 21:53 Clear 75 24 N/A N/A Calm 29.88 1012 10 16.09344 0 0
10:53 pm 22:53 Clear 79 26 N/A N/A Calm 29.88 1012 10 16.09344 0 0
11:53 pm 23:53 Clear 79 26 N/A N/A Calm 29.88 1012 10 16.09344 0 0

Powered by AerisWeather